Regional Weather Roundup
Issued by NWS

Home | Current Version | Previous Version | Graphics & Text | Print | Product List | Glossary On
Versions: 1 2 3 4 5 6 7 8 9 10 11 12 13 14 15 16 17 18 19 20 21 22 23 24 25 26 27 28 29 30 31 32 33 34 35 36 37 38 39 40 41 42 43 44 45 46 47 48 49 50
000
ASUS45 KPSR 232310
RWRAZ

ARIZONA REGIONAL HOURLY WEATHER ROUNDUP
NATIONAL WEATHER SERVICE PHOENIX AZ
400 PM MST WED JUL 23 2014

NOTE: FAIR INDICATES FEW OR NO CLOUDS BELOW 12,000 FEET WITH NO
SIGNIFICANT WEATHER AND/OR OBSTRUCTIONS TO VISIBILITY.

AZZ001>003-036-240000-
NORTHWEST ARIZONA

CITY           SKY/WX    TMP DP  RH WIND       PRES   REMARKS
BULLHEAD CITY  SUNNY    113  32   6 S9        29.77F HX 105
KINGMAN        SUNNY    102  36  10 SW12G26   30.02F
$$

AZZ004>008-015-016-018-240000-
NORTH CENTRAL ARIZONA

CITY           SKY/WX    TMP DP  RH WIND       PRES   REMARKS
GRAND CANYON   PTSUNNY   87  37  17 SW6       30.30F
WILLIAMS       CLOUDY    82  41  23 SW8       30.39F
PRESCOTT       CLOUDY    95  39  14 E6        30.16F
FLAGSTAFF      CLOUDY    81  47  30 S12       30.35F
PAYSON         CLOUDY    88  52  29 N10G20    30.21S
PAGE           MOSUNNY  102  39  11 VRB6      30.05F
$$

AZZ009>014-017-240000-
NORTHEAST ARIZONA

CITY           SKY/WX    TMP DP  RH WIND       PRES   REMARKS
WINSLOW        CLOUDY    89  53  29 SW10      30.16S
SAINT JOHNS    CLOUDY    72  61  68 S10       30.27F
WINDOW ROCK    PTSUNNY   90  42  18 SE9       30.34F
SHOW LOW       PTSUNNY   84  46  26 SE14      30.33F
$$

AZZ023-240000-
GREATER PHOENIX AREA

CITY           SKY/WX    TMP DP  RH WIND       PRES   REMARKS
PHOENIX        PTSUNNY  112  50  13 VRB3      29.78F HX 109
BUCKEYE          N/A    111  46  11 S5        29.80F HX 107
GLENDALE       PTSUNNY  111  48  12 E3        29.80F HX 107
LUKE AFB       NOT AVBL
DEER VALLEY    SUNNY    109  51  14 SE8       29.81F HX 106
SCOTTSDALE     MOSUNNY  109  53  15 VRB3      29.83F HX 107
MESA-FALCON    PTSUNNY  109  55  17 VRB7      29.81F HX 108
MESA-GATEWAY   PTSUNNY  109  48  13 NE5       29.83F HX 106
CHANDLER       PTSUNNY  111  55  16 W7          N/A  HX 110
$$

AZZ027-028-240000-
SOUTHWEST MARICOPA COUNTY AND PINAL COUNTY

CITY           SKY/WX    TMP DP  RH WIND       PRES   REMARKS
CASA GRANDE    MOSUNNY  109  55  17 NW8       29.84F HX 108
GILA BEND      PTCLDY   113  45  10 N8        29.78F HX 108
$$

AZZ503-504-507>509-240000-
SOUTHEAST ARIZONA

CITY           SKY/WX    TMP DP  RH WIND       PRES   REMARKS
TUCSON         MOSUNNY  105  51  16 E9        29.94F HX 102
DAVIS-MONTHAN  CLOUDY   104  53  18 SE8       29.93F HX 102
RYAN FIELD       N/A    106  52  16 SE6       29.93F HX 103
NOGALES        MOSUNNY   98  53  22 SE7       30.05F
SIERRA VISTA   PTSUNNY   91  52  25 E12G18    30.16F
DOUGLAS        MOSUNNY   95  52  23 E17G24    30.10F
SAFFORD        PTSUNNY   89  60  37 SE16      30.08F
$$

AZZ020-021-025-026-031-240000-
SOUTHWEST ARIZONA

CITY           SKY/WX    TMP DP  RH WIND       PRES   REMARKS
YUMA           NOT AVBL
$$

CAZ031-033-041-043-047-048-061-240000-
SOUTHERN CALIFORNIA

CITY           SKY/WX    TMP DP  RH WIND       PRES   REMARKS
DOWNTOWN L.A.  SUNNY     83  57  41 VRB6      29.91F
L.A. AIRPORT   MOSUNNY   78  58  49 W16       29.92F
SAN DIEGO      MOSUNNY   79  62  56 NW10      29.93F
BURBANK        SUNNY     91  47  21 S12G23    29.91F
ONTARIO        MOSUNNY   97  53  22 SW13      29.91F
RIVERSIDE      SUNNY     97  50  20 W10G21    29.90F
PALM SPRINGS   SUNNY    115  29   5 NW16G25   29.77F HX 106
EL CENTRO NAS  MOSUNNY  114  32   6 VRB3      29.71F HX 106
IMPERIAL       MOSUNNY  115  36   7 VRB3      29.71F HX 107
BLYTHE         PTSUNNY  114  33   6 S8        29.75F HX 106
NEEDLES        MOSUNNY  116  30   5 S8        29.78F HX 107
$$

NVZ020-UTZ003-240000-
SOUTHERN NEVADA-UTAH

CITY           SKY/WX    TMP DP  RH WIND       PRES   REMARKS
LAS VEGAS      MOSUNNY  111  23   4 SW17G23   29.83F HX 102
SALT LAKE CITY PTSUNNY  100  36  11 W7        29.97F
$$

NMZ009-TXZ055-240000-
NEW MEXICO-WEST TEXAS

CITY           SKY/WX    TMP DP  RH WIND       PRES   REMARKS
ALBUQUERQUE    PTSUNNY   87  51  28 S7        30.29S
EL PASO        MOSUNNY   95  43  16 SE12G22   30.13F
$$


........................KEY........................
SKY/WX - SKY CONDITION/WEATHER
TMP    - TEMPERATURE IN FAHRENHEIT
DP     - DEW POINT IN FAHRENHEIT
RH     - RELATIVE HUMIDITY IN PERCENT
WIND   - DIRECTION AND SPEED IN MILES PER HOUR (MPH)
VRB    - VARIABLE WIND DIRECTION
PRES   - MEAN SEA LEVEL PRESSURE IN INCHES OF MERCURY
         F - FALLING PRESSURE   R - RISING PRESSURE
         S - STEADY PRESSURE
VSB    - VISIBILITY IN MILES
HX     - HEAT INDEX IN FAHRENHEIT
WCI    - WIND CHILL INDEX IN FAHRENHEIT
TC     - TEMPERATURE IN CELSIUS WHICH IS ALSO KNOWN AS
         TEMPERATURE IN CENTIGRADE
AFB    - AIR FORCE BASE
         LUKE AFB IS LUKE AIR FORCE BASE
         DAVIS-MONTHAN IS DAVIS-MONTHAN AIR FORCE BASE
NAS    - NAVAL AIR STATION
         EL CENTRO NAS IS EL CENTRO NAVAL AIR STATION
N/A    - NOT AVAILABLE


USA.gov is the U.S. government's official web portal to all federal, state and local government web resources and services.